Location: Le Petit-Vavre
(46.5081°N, 1.5239°E)
Time: 21:40:33
(UTC+00:00)

PSLV R/B - Pass Details

Date: 03 March 2021
Orbit: 567 x 598 km, 98.2° (Epoch: 22 April)

Event Time Altitude Azimuth Distance (km) Brightness Sun altitude
Rises 18:32:17 0° 15° (NNE) 2,809 7.3 -9.3°
Reaches altitude 10° 18:34:28 10° 18° (NNE) 1,899 6.4 -9.7°
Maximum altitude 18:38:34 70° 102° (ESE) 613 3.8 -10.4°
Drops below altitude 10° 18:42:36 10° 187° (S) 1,868 6.6 -11.1°
Sets 18:44:43 0° 190° (S) 2,758 7.5 -11.4°
